TimeAST,TemperatureF,Dew PointF,Humidity,Sea Level PressureIn,VisibilityMPH,Wind Direction,Wind SpeedMPH,Gust SpeedMPH,PrecipitationIn,Events,Conditions,WindDirDegrees,DateUTC
12:00 AM,80.6,73.4,79,29.98,6.2,East,5.8,-,N/A,,Scattered Clouds,80,2012-11-25 04:00:00
1:00 AM,80.6,73.4,79,29.95,6.2,East,5.8,-,N/A,,Scattered Clouds,90,2012-11-25 05:00:00
2:00 AM,80,74,77,29.95,34,East,5.8,,,,Partly Cloudy,80,2012-11-25 06:00:00
2:00 AM,80.6,73.4,79,29.95,6.2,East,5.8,-,N/A,,Scattered Clouds,80,2012-11-25 06:00:00
3:00 AM,80.6,73.4,79,29.92,6.2,ENE,5.8,-,N/A,,Scattered Clouds,70,2012-11-25 07:00:00
5:00 AM,78,74,82,29.94,22,East,9.2,,,Rain,Light Rain Showers,90,2012-11-25 09:00:00
5:00 AM,78.8,73.4,83,29.92,6.2,East,9.2,-,N/A,Rain,Light Rain Showers,90,2012-11-25 09:00:00
6:00 AM,75.2,73.4,94,29.95,6.2,East,5.8,-,N/A,Rain,Light Rain Showers,80,2012-11-25 10:00:00
7:00 AM,77.0,73.4,89,29.98,6.2,NE,6.9,-,N/A,,Mostly Cloudy,40,2012-11-25 11:00:00
8:00 AM,79,74,82,30.00,16,,3.5,,,,Partly Cloudy,,2012-11-25 12:00:00
8:00 AM,78.8,75.2,89,29.98,6.2,Variable,3.5,-,N/A,,Scattered Clouds,0,2012-11-25 12:00:00
9:00 AM,82.4,75.2,79,30.01,6.2,Variable,3.5,-,N/A,,Scattered Clouds,0,2012-11-25 13:00:00
10:00 AM,80.6,75.2,84,30.04,6.2,Variable,3.5,-,N/A,Rain,Light Rain Showers,0,2012-11-25 14:00:00
11:00 AM,83,73,65,30.03,25,East,6.9,,,,Partly Cloudy,100,2012-11-25 15:00:00
11:00 AM,82.4,73.4,74,30.01,6.2,East,6.9,-,N/A,,Scattered Clouds,100,2012-11-25 15:00:00
12:00 PM,82.4,73.4,74,30.01,6.2,East,6.9,-,N/A,,Scattered Clouds,100,2012-11-25 16:00:00
1:00 PM,84.2,73.4,70,29.98,6.2,East,5.8,-,N/A,,Scattered Clouds,80,2012-11-25 17:00:00
2:00 PM,84,72,61,29.98,37,ESE,11.5,,,,Partly Cloudy,110,2012-11-25 18:00:00
2:00 PM,84.2,73.4,70,29.98,6.2,ESE,11.5,-,N/A,,Scattered Clouds,110,2012-11-25 18:00:00
3:00 PM,84.2,73.4,70,29.95,6.2,East,8.1,-,N/A,,Partly Cloudy,100,2012-11-25 19:00:00
4:00 PM,82.4,73.4,74,29.95,6.2,East,9.2,-,N/A,,Partly Cloudy,100,2012-11-25 20:00:00
5:00 PM,82,72,66,29.98,44,East,9.2,,,,Scattered Clouds,90,2012-11-25 21:00:00
5:00 PM,82.4,73.4,74,29.98,6.2,East,9.2,-,N/A,,Partly Cloudy,90,2012-11-25 21:00:00
6:00 PM,82.4,73.4,74,29.98,6.2,East,8.1,-,N/A,,Partly Cloudy,90,2012-11-25 22:00:00
8:00 PM,81,73,71,30.04,31,East,5.8,,,,Scattered Clouds,100,2012-11-26 00:00:00
8:00 PM,80.6,73.4,79,30.04,6.2,East,5.8,-,N/A,,Partly Cloudy,80,2012-11-26 00:00:00
9:00 PM,80.6,73.4,79,30.04,6.2,ENE,9.2,-,N/A,,Scattered Clouds,70,2012-11-26 01:00:00
10:00 PM,80.6,73.4,79,30.04,6.2,ENE,9.2,-,N/A,,Scattered Clouds,70,2012-11-26 02:00:00
11:00 PM,82,73,67,30.05,31,East,9.2,,,,Mostly Cloudy,90,2012-11-26 03:00:00
11:00 PM,82.4,73.4,74,30.04,6.2,ENE,9.2,-,N/A,,Mostly Cloudy,70,2012-11-26 03:00:00